• In Uzbekistan
  • List of Countries
  • For 7 days
  • Water Temperature
  • Weather Map
  • Weather Widgets
  • user-avatar
    Login

    Hourly Weather Mayrhofen

    Today, 4 April, Saturday

    Time Temperature Precipitation Wind Pressure Humidity
    00:00 -3°C° 0 mm 1 mps 615 mmHg 95%
    01:00 -3°C° 0 mm 1 mps 615 mmHg 95%
    02:00 -3°C° 0 mm 1 mps 615 mmHg 93%
    03:00 -3°C° 0 mm 1 mps 615 mmHg 92%
    04:00 -3°C° 0 mm 1 mps 615 mmHg 90%
    05:00 -3°C° 0 mm 1 mps 616 mmHg 87%
    06:00 -2°C° 0 mm 1 mps 616 mmHg 84%
    07:00 -2°C° 0 mm 1 mps 617 mmHg 80%
    08:00 0°C° 0 mm 1 mps 618 mmHg 72%
    09:00 +2°C° 0 mm 1 mps 618 mmHg 64%
    10:00 +2°C° 0 mm 0 mps 619 mmHg 55%
    11:00 +5°C° 0 mm 1 mps 619 mmHg 52%
    12:00 +6°C° 0 mm 1 mps 619 mmHg 49%
    13:00 +7°C° 0 mm 1 mps 620 mmHg 47%
    14:00 +7°C° 0 mm 1 mps 620 mmHg 48%
    15:00 +7°C° 0 mm 1 mps 619 mmHg 49%
    16:00 +7°C° 0 mm 1 mps 619 mmHg 51%
    17:00 +5°C° 0 mm 1 mps 619 mmHg 61%
    18:00 +3°C° 0 mm 1 mps 618 mmHg 71%
    19:00 -1°C° 0 mm 0 mps 618 mmHg 81%
    20:00 0°C° 0 mm 1 mps 618 mmHg 82%
    21:00 0°C° 0 mm 1 mps 619 mmHg 82%
    22:00 -1°C° 0 mm 1 mps 619 mmHg 83%
    23:00 -1°C° 0 mm 1 mps 619 mmHg 83%

    Tomorrow, 5 April, Sunday

    Time Temperature Precipitation Wind Pressure Humidity
    00:00 -1°C° 0 mm 1 mps 619 mmHg 83%
    01:00 -1°C° 0 mm 1 mps 619 mmHg 84%
    02:00 -1°C° 0 mm 1 mps 619 mmHg 84%
    03:00 -1°C° 0 mm 1 mps 619 mmHg 85%
    04:00 -3°C° 0 mm 2 mps 619 mmHg 86%
    05:00 -3°C° 0 mm 2 mps 619 mmHg 83%
    06:00 -2°C° 0 mm 2 mps 620 mmHg 81%
    07:00 -2°C° 0 mm 2 mps 620 mmHg 78%
    08:00 +2°C° 0 mm 2 mps 621 mmHg 71%
    09:00 +4°C° 0 mm 2 mps 621 mmHg 63%
    10:00 +7°C° 0 mm 1 mps 622 mmHg 56%
    11:00 +7°C° 0 mm 2 mps 622 mmHg 52%
    12:00 +8°C° 0 mm 2 mps 622 mmHg 47%
    13:00 +9°C° 0 mm 2 mps 622 mmHg 43%
    14:00 +9°C° 0 mm 2 mps 622 mmHg 44%
    15:00 +9°C° 0 mm 2 mps 621 mmHg 45%
    16:00 +9°C° 0 mm 2 mps 621 mmHg 46%
    17:00 +6°C° 0 mm 2 mps 620 mmHg 57%
    18:00 +4°C° 0 mm 2 mps 620 mmHg 67%
    19:00 +2°C° 0 mm 2 mps 619 mmHg 78%
    20:00 0°C° 0 mm 3 mps 619 mmHg 80%
    21:00 0°C° 0 mm 3 mps 619 mmHg 83%
    22:00 -1°C° 0 mm 3 mps 620 mmHg 85%
    23:00 -1°C° 0 mm 3 mps 620 mmHg 87%

    Day after tomorrow, 6 April, Monday

    Time Temperature Precipitation Wind Pressure Humidity
    00:00 -1°C° 0 mm 3 mps 620 mmHg 89%
    01:00 -1°C° 0 mm 3 mps 620 mmHg 90%
    02:00 -2°C° 0 mm 3 mps 620 mmHg 90%
    03:00 -2°C° 0 mm 3 mps 620 mmHg 90%
    04:00 -2°C° 0 mm 3 mps 620 mmHg 89%
    05:00 -2°C° 0 mm 2 mps 620 mmHg 86%
    06:00 -1°C° 0 mm 2 mps 620 mmHg 83%
    07:00 -1°C° 0 mm 2 mps 620 mmHg 79%
    08:00 +3°C° 0 mm 2 mps 621 mmHg 68%
    09:00 +5°C° 0 mm 2 mps 622 mmHg 57%
    10:00 +7°C° 0 mm 2 mps 622 mmHg 46%
    11:00 +8°C° 0 mm 2 mps 623 mmHg 42%
    12:00 +9°C° 0 mm 2 mps 623 mmHg 38%
    13:00 +12°C° 0 mm 2 mps 623 mmHg 34%
    14:00 +10°C° 0 mm 2 mps 623 mmHg 35%
    15:00 +10°C° 0 mm 2 mps 623 mmHg 36%
    16:00 +10°C° 0 mm 2 mps 623 mmHg 37%
    17:00 +8°C° 0 mm 2 mps 622 mmHg 48%
    18:00 +5°C° 0 mm 2 mps 621 mmHg 58%
    19:00 +3°C° 0 mm 2 mps 620 mmHg 69%
    20:00 +2°C° 0 mm 2 mps 621 mmHg 71%
    21:00 +2°C° 0 mm 1 mps 621 mmHg 72%
    22:00 +2°C° 0 mm 1 mps 621 mmHg 74%
    23:00 +2°C° 0 mm 1 mps 621 mmHg 75%

    7 April, Tuesday

    Time Temperature Precipitation Wind Pressure Humidity
    00:00 +1°C° 0 mm 1 mps 621 mmHg 77%
    01:00 +1°C° 0 mm 1 mps 621 mmHg 78%
    02:00 +1°C° 0 mm 1 mps 622 mmHg 77%
    03:00 +1°C° 0 mm 1 mps 622 mmHg 77%
    04:00 +1°C° 0 mm 1 mps 622 mmHg 76%
    05:00 +2°C° 0 mm 1 mps 622 mmHg 74%
    06:00 +3°C° 0 mm 1 mps 623 mmHg 71%
    07:00 +4°C° 0 mm 1 mps 623 mmHg 68%
    08:00 +6°C° 0 mm 1 mps 624 mmHg 63%
    09:00 +8°C° 0 mm 1 mps 624 mmHg 58%
    10:00 +10°C° 0 mm 1 mps 625 mmHg 53%
    11:00 +10°C° 0 mm 1 mps 625 mmHg 50%
    12:00 +11°C° 0 mm 1 mps 625 mmHg 48%
    13:00 +12°C° 0 mm 2 mps 625 mmHg 45%
    14:00 +10°C° 0 mm 2 mps 625 mmHg 48%
    15:00 +10°C° 0 mm 2 mps 625 mmHg 50%
    16:00 +10°C° 0 mm 2 mps 624 mmHg 53%
    17:00 +8°C° 0 mm 2 mps 624 mmHg 64%
    18:00 +7°C° 0 mm 1 mps 623 mmHg 75%
    19:00 +5°C° 0 mm 1 mps 622 mmHg 86%
    20:00 +4°C° 0 mm 1 mps 623 mmHg 88%
    21:00 +3°C° 0 mm 0 mps 623 mmHg 91%
    22:00 +2°C° 0 mm 0 mps 623 mmHg 93%
    23:00 +2°C° 0 mm 0 mps 623 mmHg 93%

    8 April, Wednesday

    Time Temperature Precipitation Wind Pressure Humidity
    00:00 +2°C° 0 mm 0 mps 623 mmHg 93%
    01:00 +2°C° 0 mm 0 mps 623 mmHg 93%
    02:00 +2°C° 0 mm 0 mps 623 mmHg 93%
    03:00 +1°C° 0 mm 0 mps 622 mmHg 93%
    04:00 +1°C° 0 mm 0 mps 622 mmHg 93%
    05:00 +2°C° 0 mm 0 mps 623 mmHg 90%
    06:00 +2°C° 0 mm 0 mps 623 mmHg 87%
    07:00 +3°C° 0 mm 0 mps 623 mmHg 85%
    08:00 +5°C° 0 mm 0 mps 624 mmHg 76%
    09:00 +8°C° 0 mm 1 mps 624 mmHg 67%
    10:00 +10°C° 0 mm 1 mps 624 mmHg 59%
    11:00 +10°C° 0 mm 1 mps 624 mmHg 56%
    12:00 +11°C° 0 mm 1 mps 624 mmHg 54%
    13:00 +11°C° 0 mm 1 mps 624 mmHg 51%
    14:00 +11°C° 0.1 mm 1 mps 624 mmHg 53%
    15:00 +11°C° 0.1 mm 1 mps 624 mmHg 55%
    16:00 +11°C° 0.1 mm 1 mps 623 mmHg 56%
    17:00 +9°C° 0.1 mm 1 mps 623 mmHg 66%
    18:00 +7°C° 0.1 mm 1 mps 622 mmHg 76%
    19:00 +5°C° 0.1 mm 1 mps 621 mmHg 86%
    20:00 +5°C° 0 mm 1 mps 621 mmHg 87%
    21:00 +4°C° 0 mm 1 mps 622 mmHg 88%
    22:00 +4°C° 0 mm 1 mps 622 mmHg 89%
    23:00 +3°C° 0 mm 1 mps 622 mmHg 89%

    9 April, Thursday

    Time Temperature Precipitation Wind Pressure Humidity
    00:00 +2°C° 0 mm 2 mps 622 mmHg 88%
    01:00 +2°C° 0 mm 2 mps 621 mmHg 88%
    02:00 +2°C° 0 mm 1 mps 621 mmHg 88%
    03:00 +2°C° 0 mm 1 mps 621 mmHg 88%
    04:00 +2°C° 0 mm 1 mps 620 mmHg 89%
    05:00 +2°C° 0 mm 1 mps 621 mmHg 85%
    06:00 +3°C° 0 mm 1 mps 621 mmHg 82%
    07:00 +4°C° 0 mm 1 mps 621 mmHg 79%
    08:00 +6°C° 0 mm 1 mps 622 mmHg 71%
    09:00 +8°C° 0 mm 1 mps 622 mmHg 64%
    10:00 +10°C° 0 mm 1 mps 623 mmHg 56%
    11:00 +11°C° 0.1 mm 1 mps 623 mmHg 53%
    12:00 +12°C° 0.1 mm 1 mps 623 mmHg 50%
    13:00 +12°C° 0.1 mm 1 mps 623 mmHg 46%
    14:00 +12°C° 0.1 mm 1 mps 622 mmHg 47%
    15:00 +12°C° 0.1 mm 2 mps 622 mmHg 47%
    16:00 +12°C° 0.1 mm 2 mps 622 mmHg 48%
    17:00 +10°C° 0.2 mm 1 mps 621 mmHg 59%
    18:00 +8°C° 0.2 mm 1 mps 620 mmHg 71%
    19:00 +5°C° 0.2 mm 1 mps 619 mmHg 83%
    20:00 +5°C° 0.1 mm 1 mps 619 mmHg 84%
    21:00 +4°C° 0.1 mm 1 mps 620 mmHg 85%
    22:00 +4°C° 0.1 mm 1 mps 620 mmHg 86%
    23:00 +3°C° 0 mm 1 mps 620 mmHg 86%
    Show more